GSAT-12

Last updated on May 21, 2019, 3:10 a.m. UTC

1 37746U 11034A   19137.88571479 -.00000176  00000-0  00000-0 0  9991
2 37746   0.0112 114.6258 0020428 327.9520 194.4817  1.00269494 17539
UTC
Height (km)
Latitude
Longitude
Inclination
Orbital Period
UTC large
Height (km)
Speed (km/s)
/
Latitude / Longitude
Inclination (degrees)
Orbital Period (minutes)
Azimuth
Elevation
Range (km)
Doppler Factor
iOS Compass Heading
iOS Angle

Next 30 passes for location: Hong Kong

Rise time Rise Azimuth (degrees) Set time Set Azimuth (degrees) Duration Max altitude (degrees)

No matching passes for this satellites